Regional Weather Roundup
Issued by NWS

Home | Current Version | Previous Version | Graphics & Text | Print | Product List | Glossary On
Versions: 1 2 3 4 5 6 7 8 9 10 11 12 13 14 15 16 17 18 19 20 21 22 23 24 25 26 27 28 29 30 31 32 33 34 35 36 37 38 39 40 41 42 43 44 45 46 47 48 49 50
000
ASUS43 KOAX 300310
RWRNE

WEATHER ROUNDUP FOR NEBRASKA
NATIONAL WEATHER SERVICE OMAHA NE
1000 PM CDT MON SEP 29 2014

NOTES: SATELLITE DATA IS BEING USED TO AUGMENT CLOUD COVER ABOVE
       12000 FEET.
       "FAIR" INDICATES FEW OR NO CLOUDS BELOW 12,000 FEET WITH NO
       SIGNIFICANT WEATHER AND/OR OBSTRUCTIONS TO VISIBILITY.

  * THESE STATIONS DO NOT REPORT WEATHER SUCH AS RAIN...SNOW OR FOG.

NEZ001>004-019>022-054>056-300400-
NEBRASKA PANHANDLE

CITY           SKY/WX    TMP DP  RH WIND       PRES   REMARKS
SCOTTSBLUFF    LGT RAIN  55  55 100 NW16      29.77F
ALLIANCE       RAIN      55  54  96 N14       29.76F FOG
CHADRON        HVY RAIN  52  52 100 N9        29.81F FOG
KIMBALL        HVY RAIN  51  50  95 NW26G32   29.77S
SIDNEY         LGT RAIN  57  55  93 N12       29.73F
$$

NEZ057>060-069>072-079>082-300400-
SOUTHWEST NEBRASKA

CITY           SKY/WX    TMP DP  RH WIND       PRES   REMARKS
NORTH PLATTE   CLOUDY    72  53  51 SE20G25   29.81R
IMPERIAL       TSTM      63  56  78 SW22G39   29.81R
LEXINGTON      PTCLDY    70  55  57 SE15G24   29.86F
MCCOOK         CLOUDY    72  53  51 SE18G28   29.81S
OGALLALA       CLOUDY    74  54  49 SE25G37   29.73F
$$

NEZ005>010-023>029-035>040-094-300400-
NORTH CENTRAL NEBRASKA

CITY           SKY/WX    TMP DP  RH WIND       PRES   REMARKS
VALENTINE      CLOUDY    66  60  81 E10       29.84F
AINSWORTH      CLOUDY    69  51  52 SE16G23   29.87S
BROKEN BOW     MOCLDY    69  53  56 SE13G22   29.88S
O`NEILL        MOCLDY    64  59  83 E8        29.91S
ORD            CLOUDY    70  53  54 SE12      29.89R
THEDFORD       CLOUDY    73  54  51 SE25G32   29.84F
$$

NEZ041-046>049-061>064-073>077-083>087-300400-
SOUTH CENTRAL NEBRASKA

CITY           SKY/WX    TMP DP  RH WIND       PRES   REMARKS
GRAND ISLAND   MOCLDY    69  53  56 SE10      29.92R
AURORA         CLEAR     62  54  76 SE3       29.92R
HASTINGS       MOCLDY    70  52  52 SE10      29.91R
HEBRON         CLEAR     64  54  69 SE6       29.91S
HOLDREGE       PTCLDY    69  52  56 SE13      29.89S
KEARNEY *      CLOUDY    70  52  52 E12       29.91R
YORK           CLEAR     66  57  72 SE8       29.92S
$$

NEZ011>018-030>034-042>045-300400-
NORTHEAST NEBRASKA

CITY           SKY/WX    TMP DP  RH WIND       PRES   REMARKS
NORFOLK        MOCLDY    68  62  81 E8        29.93R
ALBION         PTCLDY    67  57  69 SE8       29.92S
BLAIR          CLEAR     69  61  76 NE7       29.94S
COLUMBUS *     CLEAR     68  55  64 E6        29.93R
FREMONT        CLEAR     70  58  66 E7        29.93S
TEKAMAH        CLEAR     66  61  84 NW3       29.94S
WAYNE          CLEAR     66  62  85 E10       29.95S
$$

NEZ050>053-065>068-078-088>093-300400-
SOUTHEAST NEBRASKA

CITY           SKY/WX    TMP DP  RH WIND       PRES   REMARKS
LINCOLN        CLEAR     69  55  60 SE3       29.92F
OMAHA EPPLEY   CLEAR     64  59  83 N3        29.93F
BEATRICE       CLEAR     70  58  65 SE7       29.92S
FALLS CITY     CLEAR     67  57  70 SE6       29.93S
NEBRASKA CITY  CLEAR     70  49  48 SE6       29.94S
PLATTSMOUTH    CLEAR     67  53  61 E5        29.93F
$$

NEZ044-045-051>053-067-300400-
OMAHA AREA

CITY           SKY/WX    TMP DP  RH WIND       PRES   REMARKS
OMAHA EPPLEY   CLEAR     64  59  83 N3        29.93F
BLAIR          CLEAR     69  61  76 NE7       29.94S
FREMONT        CLEAR     70  58  66 E7        29.93S
MILLARD        CLEAR     66  61  83 CALM      29.92F
OFFUTT AFB     CLEAR     67  61  79 E6        29.92F
PLATTSMOUTH    CLEAR     67  53  61 E5        29.93F
WAHOO          FAIR      65  56  72 SE5       29.93R
$$



USA.gov is the U.S. government's official web portal to all federal, state and local government web resources and services.